Regional Weather Roundup
Issued by NWS

Home | Current Version | Previous Version | Text Only | Print | Product List | Glossary On
Versions: 1 2 3 4 5 6 7 8 9 10 11 12 13 14 15 16 17 18 19 20 21 22 23 24 25 26 27 28 29 30 31 32 33 34 35 36 37 38 39 40 41 42 43 44 45 46 47 48 49 50
000
ASUS45 KABQ 011901
RWRNM
NEW MEXICO REGIONAL WEATHER ROUNDUP
NATIONAL WEATHER SERVICE ALBUQUERQUE NM
100 PM MDT SAT OCT 01 2016

NOTE: "FAIR" MEANS FEW OR NO CLOUDS BELOW 12,000 FEET AGL WITH NO
       SIGNIFICANT WEATHER OR OBSTRUCTIONS TO VISION.

      THIS PRODUCT IS RELEASED AS TWO VERSIONS.  ONE VERSION NEAR
      THE TOP OF THE HOUR CONTAINING PRELIMINARY DATA FROM ALBUQUERQUE
      AND OTHER STATIONS.  A FINAL VERSION WITH ADDITIONAL DATA IS
      ISSUED ABOUT 10 MINUTES AFTER THE HOUR.

NMZ501-503-504-510>518-012000-
NORTHWEST PLATEAU/NORTHCENTRAL MOUNTAINS

CITY           SKY/WX    TMP DP  RH WIND       PRES   REMARKS
FARMINGTON     FAIR      70  47  43 VRB3      30.21F
LOS ALAMOS     FAIR      65  38  37 N5        30.29F
SANTA FE       CLOUDY    71  38  29 SW8       30.22F
TAOS           FAIR      66  36  32 W7        30.26F
ANGEL FIRE     FAIR      64  28  26 SW16G23   30.32F

$$
NMZ402-403-502-505>509-012000-
WESTCENTRAL MOUNTAINS/SOUTHWEST MOUNTAINS

CITY           SKY/WX    TMP DP  RH WIND       PRES   REMARKS
GALLUP         FAIR      69  43  38 VRB3      30.27F
SILVER CITY    FAIR      75  40  28 NW17G24   30.23F

$$
NMZ407-409-411-412-012000-
SOUTHERN DESERTS

CITY           SKY/WX    TMP DP  RH WIND       PRES   REMARKS
DEMING         PTSUNNY   82  47  29 NW8       30.15F
LAS CRUCES     FAIR      78  54  43 W8        30.18F
HOLLOMAN AFB   FAIR      77  58  52 SW10      30.13F
ALAMOGORDO     FAIR      75  57  53 W5        30.15F
T OR C         PTSUNNY   78  49  35 VRB3      30.16F

$$
NMZ519>523-012000-
CENTRAL VALLEYS/CENTRAL HIGHLANDS

CITY           SKY/WX    TMP DP  RH WIND       PRES   REMARKS
ALBUQUERQUE    FAIR      74  47  38 SW6       30.20F
DOUBLE EAGLE   PTSUNNY   75  46  35 W6        30.23F
CLINES CORNERS PTSUNNY   69  38  32 N17G25    30.26F
BELEN          FAIR      74  43  33 CALM      30.20F
SOCORRO        FAIR      76  46  33 CALM      30.17F

$$
NMZ524>526-539-540-012000-
SOUTHCENTRAL MOUNTAINS

CITY           SKY/WX    TMP DP  RH WIND       PRES   REMARKS
RUIDOSO        PTSUNNY   68  45  42 S10       30.27F

$$
NMZ527>531-012000-
NORTHEAST HIGHLANDS/NORTHEAST PLAINS

CITY           SKY/WX    TMP DP  RH WIND       PRES   REMARKS
LAS VEGAS      FAIR      74  27  17 CALM      30.20F
RATON          FAIR      74  38  27 E6        30.16F
CLAYTON        FAIR      78  51  38 NE6       30.10F

$$
NMZ532>537-012000-
EASTCENTRAL PLAINS

CITY           SKY/WX    TMP DP  RH WIND       PRES   REMARKS
TUCUMCARI      FAIR      83  49  30 VRB3      30.04F
CANNON AFB     FAIR      78  54  42 VRB6      30.08F
CLOVIS AIRPORT FAIR      77  55  47 SW10      30.09F

$$
NMZ028-029-538-012000-
SOUTHEAST PLAINS

CITY           SKY/WX    TMP DP  RH WIND       PRES   REMARKS
ROSWELL        FAIR      81  56  42 SE13      30.07F
ARTESIA        FAIR      79  61  53 SE10      30.08F
CARLSBAD       FAIR      80  60  50 S8        30.06F
HOBBS          SUNNY     79  59  50 SE7       30.10F


$$



USA.gov is the U.S. government's official web portal to all federal, state and local government web resources and services.